This is the latest recevied weather packets stored in our database for station/object KJ4EWA. If no packets are shown the sender has not sent any weather packets the latest 10 day(s).
| Time | Temp. | Humidity | Pressure | Rain* | Wind** | Luminosity | Snow |
|---|---|---|---|---|---|---|---|
| 1778159677 | 25.56° C | 98% | 1016.3 hPa | 0 mm | - | 18 W/m² | - |
| 1778159374 | 25.56° C | 97% | 1016.2 hPa | 0 mm | - | 34 W/m² | - |
| 1778159071 | 26.11° C | 97% | 1015.8 hPa | 0 mm | - | 42 W/m² | - |
| 1778158770 | 26.11° C | 96% | 1015.7 hPa | 0 mm | - | 84 W/m² | - |
| 1778158467 | 26.11° C | 96% | 1016 hPa | 0 mm | - | 125 W/m² | - |
| 1778158164 | 26.11° C | 97% | 1016 hPa | 0 mm | - | 124 W/m² | - |
| 1778157860 | 26.11° C | 98% | 1015.9 hPa | 0 mm | - | 94 W/m² | - |
| 1778157559 | 25.56° C | 98% | 1016 hPa | 0 mm | - | 117 W/m² | - |
| 1778157256 | 25.56° C | 99% | 1015.9 hPa | 0 mm | - | 72 W/m² | - |
| 1778156953 | 25.56° C | 99% | 1016.1 hPa | 0 mm | - | 61 W/m² | - |
| 1778156647 | 25.56° C | 99% | 1016 hPa | 0 mm | - | 48 W/m² | - |
| 1778156344 | 25° C | 99% | 1015.9 hPa | 0 mm | - | 70 W/m² | - |
| 1778156039 | 25° C | 99% | 1015.8 hPa | 0 mm | - | 23 W/m² | - |
| 1778155736 | 25° C | 99% | 1015.6 hPa | 0 mm | - | 20 W/m² | - |
| 1778155433 | 25° C | 99% | 1015.7 hPa | 0 mm | - | 40 W/m² | - |
| 1778155129 | 25° C | 99% | 1015.5 hPa | 0 mm | - | 17 W/m² | - |
| 1778154825 | 25° C | 99% | 1015.6 hPa | 0 mm | - | 7 W/m² | - |
| 1778154521 | 25° C | 99% | 1015.5 hPa | 0 mm | - | 5 W/m² | - |
| 1778154218 | 25° C | 99% | 1015.4 hPa | 0 mm | - | 5 W/m² | - |
| 1778153915 | 25° C | 99% | 1015.4 hPa | 0 mm | - | 4 W/m² | - |
| 1778153612 | 25° C | 99% | 1015.3 hPa | 0 mm | - | 2 W/m² | - |
| 1778153310 | 25° C | 99% | 1015.2 hPa | 0 mm | - | 2 W/m² | - |
| 1778153007 | 25° C | 99% | 1015.2 hPa | 0 mm | - | 2 W/m² | - |
| 1778152705 | 25° C | 99% | 1015.2 hPa | 0 mm | - | 2 W/m² | - |
| 1778152401 | 25° C | 99% | 1014.9 hPa | 0 mm | - | 1 W/m² | - |
* Rain latest hour (hover to see other rain measurements)
** Current wind speed in m/s (hover to see current wind gust speed)